sat.trackr.live / text

‹ back to catalog

STARLINK-36350

NORAD 67572 · 2026-016M

PAYLOAD ACTIVE UNKNOWN

§ Identity

Operator
Country
US
Launch date
2026-01-25
Launch site
AFWTR
Launch vehicle
Mass (kg)
RCS (m²)

Purposes: comms

External: N2YO · Heavens-Above · Gunter

§ Orbital elements

Epoch: 2026-05-25T03:54:10.219392Z

Period
93.91 min
Inclination
97.2840°
Eccentricity
0.0000617
Mean motion
15.33450560 rev/d
Perigee alt
465.1 km
Apogee alt
465.9 km
Semi-major
6,843.7 km
B*
6.2979e-4
RAAN
205.4888°
Arg perigee
97.3063°
Mean anomaly
262.8250°
Rev number
1,858

§ Raw data

STARLINK-363501 67572U 26016M   26145.16261828  .00020315  00000+0  62979-3 0  99902 67572  97.2840 205.4888 0000617  97.3063 262.8250 15.33450560 18585

JSON: /api/v1/satellites/67572 · /tle

For live sub-satellite position, see the globe view (requires WebGL).

§ Visibility from observer

Set your observer location to see the next 7 days of passes ≥ 10°. The values pass through the URL so the page stays shareable.

No JS? Fill the form by hand. The geolocation button needs JavaScript.